Time,TemperatureF,DewpointF,PressureIn,WindDirection,WindDirectionDegrees,WindSpeedMPH,WindSpeedGustMPH,Humidity,HourlyPrecipIn,Conditions,Clouds,dailyrainin,SolarRadiationWatts/m^2,SoftwareType,DateUTC
2013-02-28 04:30:00,42.9,30.0,29.71,NNW,339,0.0,12.0,60,0.00,,,0.00,0,Wunderground v.1.15,2013-02-28 09:30:00,
2013-02-28 04:40:00,42.7,29.4,29.71,NNW,339,0.0,12.0,59,0.00,,,0.00,0,Wunderground v.1.15,2013-02-28 09:40:00,
2013-02-28 04:45:00,42.6,29.3,29.71,North,5,1.0,12.0,59,0.00,,,0.00,0,Wunderground v.1.15,2013-02-28 09:45:00,
2013-02-28 04:50:00,42.6,28.8,29.71,NW,317,2.0,2.0,58,0.00,,,0.00,0,Wunderground v.1.15,2013-02-28 09:50:00,
2013-02-28 04:55:00,42.6,28.4,29.72,NNW,334,2.0,12.0,57,0.00,,,0.00,0,Wunderground v.1.15,2013-02-28 09:55:00,
2013-02-28 05:00:00,42.5,28.3,29.72,NNW,333,1.0,1.0,57,0.00,,,0.00,0,Wunderground v.1.15,2013-02-28 10:00:00,
2013-02-28 05:05:00,42.5,28.8,29.72,NW,325,1.0,3.0,58,0.00,,,0.00,0,Wunderground v.1.15,2013-02-28 10:05:00,
2013-02-28 05:15:00,42.2,28.5,29.72,WNW,300,2.0,12.0,58,0.00,,,0.00,0,Wunderground v.1.15,2013-02-28 10:15:00,
2013-02-28 05:20:00,42.1,28.8,29.72,WNW,302,3.0,12.0,59,0.00,,,0.00,0,Wunderground v.1.15,2013-02-28 10:20:00,
2013-02-28 05:25:00,42.0,28.7,29.72,NNW,339,2.0,12.0,59,0.00,,,0.00,0,Wunderground v.1.15,2013-02-28 10:25:00,
2013-02-28 05:30:00,41.9,28.6,29.72,West,267,2.0,12.0,59,0.00,,,0.00,0,Wunderground v.1.15,2013-02-28 10:30:00,
2013-02-28 05:35:00,41.7,28.4,29.72,NW,306,2.0,12.0,59,0.00,,,0.00,0,Wunderground v.1.15,2013-02-28 10:35:00,
2013-02-28 05:45:00,41.5,28.2,29.73,NW,307,1.0,12.0,59,0.00,,,0.00,0,Wunderground v.1.15,2013-02-28 10:45:00,
2013-02-28 05:50:00,41.4,28.1,29.73,NW,321,2.0,12.0,59,0.00,,,0.00,0,Wunderground v.1.15,2013-02-28 10:50:00,
2013-02-28 05:55:00,41.3,28.0,29.73,NW,312,2.0,12.0,59,0.00,,,0.00,0,Wunderground v.1.15,2013-02-28 10:55:00,
2013-02-28 06:00:00,41.3,28.0,29.73,WNW,298,2.0,12.0,59,0.00,,,0.00,0,Wunderground v.1.15,2013-02-28 11:00:00,
2013-02-28 06:05:00,41.1,27.9,29.73,WNW,298,2.0,12.0,59,0.00,,,0.00,0,Wunderground v.1.15,2013-02-28 11:05:00,
2013-02-28 06:10:00,40.8,28.0,29.73,NW,320,3.0,12.0,60,0.00,,,0.00,0,Wunderground v.1.15,2013-02-28 11:10:00,
2013-02-28 06:15:00,40.7,27.5,29.73,NNW,339,2.0,12.0,59,0.00,,,0.00,0,Wunderground v.1.15,2013-02-28 11:15:00,
2013-02-28 06:20:00,40.5,27.3,29.74,NW,314,2.0,12.0,59,0.00,,,0.00,0,Wunderground v.1.15,2013-02-28 11:20:00,
2013-02-28 06:25:00,40.4,27.2,29.74,NW,313,2.0,12.0,59,0.00,,,0.00,0,Wunderground v.1.15,2013-02-28 11:25:00,
2013-02-28 06:35:00,40.2,27.4,29.74,WNW,285,3.0,12.0,60,0.00,,,0.00,0,Wunderground v.1.15,2013-02-28 11:35:00,
2013-02-28 06:40:00,40.2,27.4,29.74,NW,310,3.0,3.0,60,0.00,,,0.00,0,Wunderground v.1.15,2013-02-28 11:40:00,
2013-02-28 06:50:00,40.0,27.2,29.74,NW,310,2.0,2.0,60,0.00,,,0.00,7,Wunderground v.1.15,2013-02-28 11:50:00,
2013-02-28 06:55:00,39.9,27.1,29.74,WNW,300,2.0,12.0,60,0.00,,,0.00,11,Wunderground v.1.15,2013-02-28 11:55:00,
2013-02-28 07:00:00,39.8,27.0,29.74,NW,320,2.0,12.0,60,0.00,,,0.00,23,Wunderground v.1.15,2013-02-28 12:00:00,
2013-02-28 07:10:00,39.7,26.9,29.74,NW,319,2.0,2.0,60,0.00,,,0.00,32,Wunderground v.1.15,2013-02-28 12:10:00,
2013-02-28 07:15:00,39.7,26.9,29.74,NNW,331,3.0,3.0,60,0.00,,,0.00,25,Wunderground v.1.15,2013-02-28 12:15:00,
2013-02-28 07:20:00,39.7,26.9,29.74,NW,309,3.0,12.0,60,0.00,,,0.00,26,Wunderground v.1.15,2013-02-28 12:20:00,
2013-02-28 07:25:00,39.7,26.9,29.74,WNW,289,2.0,12.0,60,0.00,,,0.00,26,Wunderground v.1.15,2013-02-28 12:25:00,
2013-02-28 07:30:00,39.6,26.8,29.74,NW,306,3.0,12.0,60,0.00,,,0.00,35,Wunderground v.1.15,2013-02-28 12:30:00,
2013-02-28 07:35:00,39.5,26.8,29.74,NW,306,3.0,12.0,60,0.00,,,0.00,53,Wunderground v.1.15,2013-02-28 12:35:00,
2013-02-28 07:40:00,39.5,26.8,29.74,WNW,290,3.0,3.0,60,0.00,,,0.00,67,Wunderground v.1.15,2013-02-28 12:40:00,
2013-02-28 07:50:00,39.7,27.3,29.75,NW,304,2.0,12.0,61,0.00,,,0.00,79,Wunderground v.1.15,2013-02-28 12:50:00,
2013-02-28 07:55:00,40.0,28.0,29.75,NNW,347,2.0,12.0,62,0.00,,,0.00,84,Wunderground v.1.15,2013-02-28 12:55:00,
2013-02-28 08:00:00,40.2,27.8,29.75,North,351,3.0,3.0,61,0.00,,,0.00,86,Wunderground v.1.15,2013-02-28 13:00:00,
2013-02-28 08:05:00,40.3,27.5,29.75,WNW,282,3.0,12.0,60,0.00,,,0.00,88,Wunderground v.1.15,2013-02-28 13:05:00,
2013-02-28 08:10:00,40.3,27.1,29.75,NNW,330,4.0,12.0,59,0.00,,,0.00,95,Wunderground v.1.15,2013-02-28 13:10:00,
2013-02-28 08:15:00,40.3,27.5,29.75,NNW,338,4.0,12.0,60,0.00,,,0.00,98,Wunderground v.1.15,2013-02-28 13:15:00,
2013-02-28 08:25:00,40.3,27.9,29.76,WNW,297,2.0,12.0,61,0.00,,,0.00,111,Wunderground v.1.15,2013-02-28 13:25:00,
2013-02-28 08:30:00,40.4,27.6,29.76,WNW,300,3.0,12.0,60,0.00,,,0.00,123,Wunderground v.1.15,2013-02-28 13:30:00,
2013-02-28 08:35:00,40.3,27.9,29.75,WNW,286,4.0,12.0,61,0.00,,,0.00,135,Wunderground v.1.15,2013-02-28 13:35:00,
2013-02-28 08:40:00,40.3,27.9,29.75,WNW,286,4.0,4.0,61,0.00,,,0.00,139,Wunderground v.1.15,2013-02-28 13:40:00,
2013-02-28 08:45:00,40.5,27.7,29.75,West,281,4.0,7.0,60,0.00,,,0.00,148,Wunderground v.1.15,2013-02-28 13:45:00,
2013-02-28 08:55:00,40.7,27.9,29.75,WNW,284,5.0,12.0,60,0.00,,,0.00,146,Wunderground v.1.15,2013-02-28 13:55:00,
2013-02-28 09:00:00,40.8,27.6,29.75,NW,307,5.0,5.0,59,0.00,,,0.00,155,Wunderground v.1.15,2013-02-28 14:00:00,
2013-02-28 09:05:00,41.0,27.8,29.75,NNW,337,5.0,9.0,59,0.00,,,0.00,156,Wunderground v.1.15,2013-02-28 14:05:00,
2013-02-28 09:10:00,41.0,26.9,29.74,WNW,294,5.0,12.0,57,0.00,,,0.00,142,Wunderground v.1.15,2013-02-28 14:10:00,
2013-02-28 09:15:00,40.9,26.8,29.74,WNW,282,5.0,12.0,57,0.00,,,0.00,134,Wunderground v.1.15,2013-02-28 14:15:00,
2013-02-28 09:25:00,41.1,27.0,29.74,NW,311,4.0,7.0,57,0.00,,,0.00,144,Wunderground v.1.15,2013-02-28 14:25:00,
2013-02-28 09:35:00,41.3,27.6,29.75,WNW,292,4.0,12.0,58,0.00,,,0.00,171,Wunderground v.1.15,2013-02-28 14:35:00,
2013-02-28 09:40:00,41.4,26.9,29.75,NW,319,4.0,12.0,56,0.00,,,0.00,171,Wunderground v.1.15,2013-02-28 14:40:00,
2013-02-28 09:45:00,41.6,27.1,29.75,WNW,284,5.0,12.0,56,0.00,,,0.00,188,Wunderground v.1.15,2013-02-28 14:45:00,
2013-02-28 09:50:00,41.6,27.1,29.75,WNW,284,4.0,12.0,56,0.00,,,0.00,218,Wunderground v.1.15,2013-02-28 14:50:00,
2013-02-28 10:00:00,42.1,27.1,29.75,NW,313,4.0,12.0,55,0.00,,,0.00,216,Wunderground v.1.15,2013-02-28 15:00:00,
2013-02-28 10:05:00,42.3,26.8,29.75,WNW,286,4.0,12.0,54,0.00,,,0.00,183,Wunderground v.1.15,2013-02-28 15:05:00,
2013-02-28 10:10:00,42.3,27.3,29.75,WNW,294,4.0,12.0,55,0.00,,,0.00,176,Wunderground v.1.15,2013-02-28 15:10:00,
2013-02-28 10:15:00,42.3,26.4,29.75,West,277,6.0,12.0,53,0.00,,,0.00,179,Wunderground v.1.15,2013-02-28 15:15:00,
2013-02-28 10:20:00,42.2,26.3,29.75,North,360,6.0,6.0,53,0.00,,,0.00,156,Wunderground v.1.15,2013-02-28 15:20:00,
2013-02-28 10:30:00,42.3,26.4,29.75,NW,315,5.0,5.0,53,0.00,,,0.00,185,Wunderground v.1.15,2013-02-28 15:30:00,
2013-02-28 10:35:00,42.5,27.0,29.75,NW,319,3.0,8.0,54,0.00,,,0.00,192,Wunderground v.1.15,2013-02-28 15:35:00,
2013-02-28 10:40:00,42.6,26.6,29.75,North,360,4.0,12.0,53,0.00,,,0.00,214,Wunderground v.1.15,2013-02-28 15:40:00,
2013-02-28 10:45:00,42.7,27.2,29.75,North,355,6.0,12.0,54,0.00,,,0.00,251,Wunderground v.1.15,2013-02-28 15:45:00,
2013-02-28 10:50:00,42.7,27.2,29.75,West,263,6.0,12.0,54,0.00,,,0.00,265,Wunderground v.1.15,2013-02-28 15:50:00,
2013-02-28 10:55:00,42.7,27.2,29.75,WNW,298,6.0,12.0,54,0.00,,,0.00,290,Wunderground v.1.15,2013-02-28 15:55:00,
2013-02-28 11:00:00,42.7,27.2,29.76,NW,319,7.0,16.0,54,0.00,,,0.00,329,Wunderground v.1.15,2013-02-28 16:00:00,
2013-02-28 11:05:00,42.5,27.0,29.75,NNE,12,8.0,16.0,54,0.00,,,0.00,341,Wunderground v.1.15,2013-02-28 16:05:00,
2013-02-28 11:10:00,42.8,27.7,29.76,North,10,7.0,7.0,55,0.00,,,0.00,406,Wunderground v.1.15,2013-02-28 16:10:00,
2013-02-28 11:15:00,43.1,27.6,29.76,WNW,300,6.0,9.0,54,0.00,,,0.00,399,Wunderground v.1.15,2013-02-28 16:15:00,
2013-02-28 11:25:00,43.1,28.0,29.75,NW,311,5.0,12.0,55,0.00,,,0.00,313,Wunderground v.1.15,2013-02-28 16:25:00,
2013-02-28 11:35:00,43.2,27.2,29.75,WNW,302,7.0,8.0,53,0.00,,,0.00,309,Wunderground v.1.15,2013-02-28 16:35:00,
2013-02-28 11:45:00,43.0,27.0,29.75,North,355,6.0,10.0,53,0.00,,,0.00,371,Wunderground v.1.15,2013-02-28 16:45:00,
2013-02-28 11:55:00,43.0,27.0,29.75,NNW,333,8.0,12.0,53,0.00,,,0.00,360,Wunderground v.1.15,2013-02-28 16:55:00,
2013-02-28 12:05:00,43.4,27.4,29.75,NNW,339,5.0,12.0,53,0.00,,,0.00,425,Wunderground v.1.15,2013-02-28 17:05:00,
2013-02-28 12:10:00,43.8,27.3,29.75,NNW,344,5.0,5.0,52,0.00,,,0.00,501,Wunderground v.1.15,2013-02-28 17:10:00,
2013-02-28 12:15:00,43.7,26.7,29.75,NW,325,6.0,12.0,51,0.00,,,0.00,394,Wunderground v.1.15,2013-02-28 17:15:00,
2013-02-28 12:20:00,43.3,26.4,29.75,NW,307,8.0,12.0,51,0.00,,,0.00,297,Wunderground v.1.15,2013-02-28 17:20:00,
2013-02-28 12:25:00,43.1,26.2,29.75,NW,308,8.0,12.0,51,0.00,,,0.00,285,Wunderground v.1.15,2013-02-28 17:25:00,
2013-02-28 12:35:00,43.3,27.3,29.75,NNE,12,4.0,12.0,53,0.00,,,0.00,302,Wunderground v.1.15,2013-02-28 17:35:00,
2013-02-28 12:40:00,43.3,27.3,29.75,NNW,348,4.0,12.0,53,0.00,,,0.00,294,Wunderground v.1.15,2013-02-28 17:40:00,
2013-02-28 12:50:00,42.4,26.9,29.75,North,355,5.0,12.0,54,0.00,,,0.00,244,Wunderground v.1.15,2013-02-28 17:50:00,
2013-02-28 12:55:00,42.4,27.8,29.75,NW,304,6.0,12.0,56,0.00,,,0.00,246,Wunderground v.1.15,2013-02-28 17:55:00,
2013-02-28 13:00:00,41.9,27.8,29.75,NNE,12,6.0,6.0,57,0.00,,,0.00,237,Wunderground v.1.15,2013-02-28 18:00:00,
2013-02-28 13:05:00,41.8,27.7,29.75,NW,306,4.0,12.0,57,0.00,,,0.00,267,Wunderground v.1.15,2013-02-28 18:05:00,
2013-02-28 13:10:00,41.7,27.1,29.75,NW,316,4.0,12.0,56,0.00,,,0.00,281,Wunderground v.1.15,2013-02-28 18:10:00,
2013-02-28 13:15:00,41.6,27.5,29.74,WNW,286,6.0,12.0,57,0.00,,,0.00,272,Wunderground v.1.15,2013-02-28 18:15:00,
2013-02-28 13:20:00,41.8,27.7,29.74,NW,313,5.0,5.0,57,0.00,,,0.00,315,Wunderground v.1.15,2013-02-28 18:20:00,
2013-02-28 13:25:00,41.8,26.8,29.74,WSW,244,5.0,6.0,55,0.00,,,0.00,308,Wunderground v.1.15,2013-02-28 18:25:00,
2013-02-28 13:35:00,42.2,27.2,29.74,West,277,5.0,12.0,55,0.00,,,0.00,350,Wunderground v.1.15,2013-02-28 18:35:00,
2013-02-28 13:45:00,42.9,27.8,29.73,NNW,329,2.0,12.0,55,0.00,,,0.00,246,Wunderground v.1.15,2013-02-28 18:45:00,
2013-02-28 13:50:00,43.2,27.2,29.73,WSW,249,3.0,12.0,53,0.00,,,0.00,264,Wunderground v.1.15,2013-02-28 18:50:00,
2013-02-28 13:55:00,43.1,27.6,29.73,West,269,4.0,12.0,54,0.00,,,0.00,244,Wunderground v.1.15,2013-02-28 18:55:00,
2013-02-28 14:00:00,43.3,26.4,29.73,NW,319,4.0,4.0,51,0.00,,,0.00,209,Wunderground v.1.15,2013-02-28 19:00:00,
2013-02-28 14:05:00,43.9,24.9,29.73,NNE,16,4.0,12.0,47,0.00,,,0.00,322,Wunderground v.1.15,2013-02-28 19:05:00,
2013-02-28 14:15:00,44.6,25.1,29.73,NNE,30,4.0,12.0,46,0.00,,,0.00,371,Wunderground v.1.15,2013-02-28 19:15:00,
2013-02-28 14:20:00,44.8,25.3,29.73,West,267,6.0,6.0,46,0.00,,,0.00,390,Wunderground v.1.15,2013-02-28 19:20:00,
2013-02-28 14:25:00,45.3,25.7,29.73,NW,312,6.0,12.0,46,0.00,,,0.00,374,Wunderground v.1.15,2013-02-28 19:25:00,
2013-02-28 14:30:00,45.0,24.9,29.73,WNW,291,7.0,7.0,45,0.00,,,0.00,281,Wunderground v.1.15,2013-02-28 19:30:00,
2013-02-28 14:35:00,44.8,24.2,29.73,North,351,5.0,12.0,44,0.00,,,0.00,202,Wunderground v.1.15,2013-02-28 19:35:00,
2013-02-28 14:40:00,44.8,24.7,29.73,WSW,254,3.0,3.0,45,0.00,,,0.00,172,Wunderground v.1.15,2013-02-28 19:40:00,
2013-02-28 14:45:00,44.9,25.3,29.73,NNW,344,2.0,5.0,46,0.00,,,0.00,158,Wunderground v.1.15,2013-02-28 19:45:00,
2013-02-28 14:50:00,45.0,24.9,29.73,NNE,17,3.0,12.0,45,0.00,,,0.00,144,Wunderground v.1.15,2013-02-28 19:50:00,
2013-02-28 14:55:00,44.9,24.3,29.73,NW,316,5.0,12.0,44,0.00,,,0.00,158,Wunderground v.1.15,2013-02-28 19:55:00,
2013-02-28 15:00:00,45.0,24.9,29.73,NNW,336,4.0,12.0,45,0.00,,,0.00,169,Wunderground v.1.15,2013-02-28 20:00:00,
2013-02-28 15:05:00,45.0,24.4,29.73,West,268,4.0,12.0,44,0.00,,,0.00,172,Wunderground v.1.15,2013-02-28 20:05:00,
2013-02-28 15:15:00,45.5,24.8,29.72,NW,310,5.0,9.0,44,0.00,,,0.00,339,Wunderground v.1.15,2013-02-28 20:15:00,
2013-02-28 15:20:00,45.8,25.1,29.73,WNW,296,5.0,12.0,44,0.00,,,0.00,162,Wunderground v.1.15,2013-02-28 20:20:00,
2013-02-28 15:25:00,45.6,24.4,29.73,NNW,336,6.0,12.0,43,0.00,,,0.00,141,Wunderground v.1.15,2013-02-28 20:25:00,
2013-02-28 15:30:00,45.4,24.7,29.73,North,360,6.0,12.0,44,0.00,,,0.00,190,Wunderground v.1.15,2013-02-28 20:30:00,
2013-02-28 15:35:00,45.6,24.9,29.73,NNW,331,6.0,12.0,44,0.00,,,0.00,548,Wunderground v.1.15,2013-02-28 20:35:00,
2013-02-28 15:40:00,45.9,25.2,29.73,WNW,300,7.0,7.0,44,0.00,,,0.00,373,Wunderground v.1.15,2013-02-28 20:40:00,
2013-02-28 15:50:00,45.6,24.9,29.72,North,5,5.0,5.0,44,0.00,,,0.00,156,Wunderground v.1.15,2013-02-28 20:50:00,
2013-02-28 16:00:00,45.5,24.8,29.72,WNW,290,4.0,4.0,44,0.00,,,0.00,111,Wunderground v.1.15,2013-02-28 21:00:00,
2013-02-28 16:05:00,45.6,24.9,29.73,NW,311,5.0,7.0,44,0.00,,,0.00,380,Wunderground v.1.15,2013-02-28 21:05:00,
2013-02-28 16:10:00,45.9,25.2,29.72,NW,304,7.0,7.0,44,0.00,,,0.00,362,Wunderground v.1.15,2013-02-28 21:10:00,
2013-02-28 16:20:00,46.0,25.8,29.72,WNW,302,5.0,5.0,45,0.00,,,0.00,132,Wunderground v.1.15,2013-02-28 21:20:00,
2013-02-28 16:25:00,45.9,25.7,29.72,NW,308,4.0,12.0,45,0.00,,,0.00,141,Wunderground v.1.15,2013-02-28 21:25:00,
2013-02-28 16:30:00,45.7,25.5,29.73,NW,305,4.0,12.0,45,0.00,,,0.00,246,Wunderground v.1.15,2013-02-28 21:30:00,
2013-02-28 16:35:00,45.9,25.7,29.73,NW,319,5.0,12.0,45,0.00,,,0.00,267,Wunderground v.1.15,2013-02-28 21:35:00,
2013-02-28 16:40:00,45.8,25.6,29.73,NNW,342,5.0,12.0,45,0.00,,,0.00,120,Wunderground v.1.15,2013-02-28 21:40:00,
2013-02-28 16:50:00,44.8,25.3,29.74,NNW,330,6.0,12.0,46,0.00,,,0.00,84,Wunderground v.1.15,2013-02-28 21:50:00,
2013-02-28 16:55:00,44.5,25.5,29.74,NW,315,6.0,12.0,47,0.00,,,0.00,83,Wunderground v.1.15,2013-02-28 21:55:00,
2013-02-28 17:00:00,44.2,25.7,29.74,NW,312,6.0,6.0,48,0.00,,,0.00,58,Wunderground v.1.15,2013-02-28 22:00:00,
2013-02-28 17:05:00,44.0,25.5,29.74,WNW,291,5.0,12.0,48,0.00,,,0.00,46,Wunderground v.1.15,2013-02-28 22:05:00,
2013-02-28 17:10:00,43.8,25.4,29.75,WNW,286,6.0,6.0,48,0.00,,,0.00,42,Wunderground v.1.15,2013-02-28 22:10:00,
2013-02-28 17:15:00,43.7,25.8,29.75,NW,310,7.0,7.0,49,0.00,,,0.00,40,Wunderground v.1.15,2013-02-28 22:15:00,
2013-02-28 17:25:00,43.4,25.5,29.75,WNW,283,6.0,12.0,49,0.00,,,0.00,23,Wunderground v.1.15,2013-02-28 22:25:00,
2013-02-28 17:30:00,43.4,26.0,29.76,NNW,332,6.0,12.0,50,0.00,,,0.00,18,Wunderground v.1.15,2013-02-28 22:30:00,
2013-02-28 17:35:00,43.4,26.5,29.76,NW,310,5.0,12.0,51,0.00,,,0.00,12,Wunderground v.1.15,2013-02-28 22:35:00,
2013-02-28 17:40:00,43.3,25.9,29.76,WNW,298,5.0,12.0,50,0.00,,,0.00,9,Wunderground v.1.15,2013-02-28 22:40:00,
2013-02-28 17:45:00,43.0,26.1,29.76,NW,319,6.0,12.0,51,0.00,,,0.00,5,Wunderground v.1.15,2013-02-28 22:45:00,
2013-02-28 17:50:00,42.9,26.0,29.76,NNW,342,6.0,6.0,51,0.00,,,0.00,5,Wunderground v.1.15,2013-02-28 22:50:00,
2013-02-28 17:55:00,42.8,25.9,29.77,WNW,284,5.0,12.0,51,0.00,,,0.00,0,Wunderground v.1.15,2013-02-28 22:55:00,
2013-02-28 18:00:00,42.7,26.3,29.77,WNW,300,5.0,5.0,52,0.00,,,0.00,0,Wunderground v.1.15,2013-02-28 23:00:00,
2013-02-28 18:05:00,42.7,25.8,29.77,WNW,293,5.0,6.0,51,0.00,,,0.00,0,Wunderground v.1.15,2013-02-28 23:05:00,
2013-02-28 18:10:00,42.6,27.1,29.77,WNW,297,5.0,5.0,54,0.00,,,0.00,0,Wunderground v.1.15,2013-02-28 23:10:00,
2013-02-28 18:20:00,42.6,26.2,29.78,NW,308,3.0,3.0,52,0.00,,,0.00,0,Wunderground v.1.15,2013-02-28 23:20:00,
2013-02-28 18:25:00,42.5,26.6,29.78,NW,316,4.0,4.0,53,0.00,,,0.00,0,Wunderground v.1.15,2013-02-28 23:25:00,
2013-02-28 18:30:00,42.4,26.0,29.78,North,355,4.0,4.0,52,0.00,,,0.00,0,Wunderground v.1.15,2013-02-28 23:30:00,
2013-02-28 18:35:00,42.3,26.4,29.79,NW,308,3.0,5.0,53,0.00,,,0.00,0,Wunderground v.1.15,2013-02-28 23:35:00,
2013-02-28 18:40:00,42.3,26.4,29.79,WNW,293,4.0,12.0,53,0.00,,,0.00,0,Wunderground v.1.15,2013-02-28 23:40:00,
2013-02-28 18:45:00,42.3,26.8,29.79,NNW,335,4.0,12.0,54,0.00,,,0.00,0,Wunderground v.1.15,2013-02-28 23:45:00,
2013-02-28 18:50:00,42.3,26.4,29.80,WNW,302,4.0,12.0,53,0.00,,,0.00,0,Wunderground v.1.15,2013-02-28 23:50:00,
2013-02-28 19:00:00,42.3,26.8,29.80,NW,308,4.0,4.0,54,0.00,,,0.00,0,Wunderground v.1.15,2013-03-01 00:00:00,
2013-02-28 19:05:00,42.3,26.4,29.80,NW,315,4.0,5.0,53,0.00,,,0.00,0,Wunderground v.1.15,2013-03-01 00:05:00,
2013-02-28 19:10:00,42.2,26.3,29.80,WNW,290,5.0,5.0,53,0.00,,,0.00,0,Wunderground v.1.15,2013-03-01 00:10:00,
2013-02-28 19:15:00,42.1,26.2,29.81,NW,307,5.0,12.0,53,0.00,,,0.00,0,Wunderground v.1.15,2013-03-01 00:15:00,
2013-02-28 19:20:00,42.0,27.0,29.81,NW,320,4.0,4.0,55,0.00,,,0.00,0,Wunderground v.1.15,2013-03-01 00:20:00,
2013-02-28 19:25:00,41.9,26.4,29.81,WNW,300,4.0,5.0,54,0.00,,,0.00,0,Wunderground v.1.15,2013-03-01 00:25:00,
2013-02-28 19:30:00,42.1,27.1,29.81,WNW,303,4.0,4.0,55,0.00,,,0.00,0,Wunderground v.1.15,2013-03-01 00:30:00,
2013-02-28 19:35:00,42.0,26.5,29.81,North,351,4.0,7.0,54,0.00,,,0.00,0,Wunderground v.1.15,2013-03-01 00:35:00,
2013-02-28 19:40:00,42.0,27.4,29.82,NNW,330,4.0,4.0,56,0.00,,,0.00,0,Wunderground v.1.15,2013-03-01 00:40:00,
2013-02-28 19:45:00,41.9,26.9,29.82,NW,321,4.0,5.0,55,0.00,,,0.00,0,Wunderground v.1.15,2013-03-01 00:45:00,
2013-02-28 19:50:00,41.9,26.9,29.81,WNW,288,4.0,12.0,55,0.00,,,0.00,0,Wunderground v.1.15,2013-03-01 00:50:00,
2013-02-28 20:00:00,41.7,26.7,29.81,NW,317,4.0,4.0,55,0.00,,,0.00,0,Wunderground v.1.15,2013-03-01 01:00:00,
2013-02-28 20:05:00,41.6,26.6,29.81,North,360,4.0,5.0,55,0.00,,,0.00,0,Wunderground v.1.15,2013-03-01 01:05:00,
2013-02-28 20:10:00,41.6,26.6,29.82,NW,319,4.0,4.0,55,0.00,,,0.00,0,Wunderground v.1.15,2013-03-01 01:10:00,
2013-02-28 20:15:00,41.5,26.5,29.82,NNW,346,5.0,5.0,55,0.00,,,0.00,0,Wunderground v.1.15,2013-03-01 01:15:00,
2013-02-28 20:20:00,41.5,27.0,29.82,NW,311,5.0,12.0,56,0.00,,,0.00,0,Wunderground v.1.15,2013-03-01 01:20:00,
2013-02-28 20:25:00,41.4,26.9,29.82,North,5,4.0,12.0,56,0.00,,,0.00,0,Wunderground v.1.15,2013-03-01 01:25:00,
2013-02-28 20:35:00,41.3,26.8,29.83,NNW,344,3.0,12.0,56,0.00,,,0.00,0,Wunderground v.1.15,2013-03-01 01:35:00,
2013-02-28 20:40:00,41.3,26.8,29.83,WNW,288,4.0,4.0,56,0.00,,,0.00,0,Wunderground v.1.15,2013-03-01 01:40:00,
2013-02-28 20:45:00,41.3,26.8,29.83,WNW,301,4.0,12.0,56,0.00,,,0.00,0,Wunderground v.1.15,2013-03-01 01:45:00,
2013-02-28 20:50:00,41.3,26.8,29.82,West,265,4.0,12.0,56,0.00,,,0.00,0,Wunderground v.1.15,2013-03-01 01:50:00,
2013-02-28 20:55:00,41.3,27.2,29.83,NW,321,4.0,12.0,57,0.00,,,0.00,0,Wunderground v.1.15,2013-03-01 01:55:00,
2013-02-28 21:05:00,41.2,27.1,29.83,NW,326,4.0,8.0,57,0.00,,,0.00,0,Wunderground v.1.15,2013-03-01 02:05:00,
2013-02-28 21:10:00,41.1,27.0,29.82,WNW,298,4.0,4.0,57,0.00,,,0.00,0,Wunderground v.1.15,2013-03-01 02:10:00,
2013-02-28 21:15:00,41.1,27.0,29.82,WNW,292,3.0,12.0,57,0.00,,,0.00,0,Wunderground v.1.15,2013-03-01 02:15:00,
2013-02-28 21:20:00,41.1,27.0,29.82,NNW,333,4.0,4.0,57,0.00,,,0.00,0,Wunderground v.1.15,2013-03-01 02:20:00,
2013-02-28 21:25:00,41.0,26.9,29.82,NW,306,4.0,9.0,57,0.00,,,0.00,0,Wunderground v.1.15,2013-03-01 02:25:00,
2013-02-28 21:30:00,41.0,26.9,29.82,West,275,4.0,4.0,57,0.00,,,0.00,0,Wunderground v.1.15,2013-03-01 02:30:00,
2013-02-28 21:35:00,41.0,26.9,29.82,WNW,296,5.0,7.0,57,0.00,,,0.00,0,Wunderground v.1.15,2013-03-01 02:35:00,
2013-02-28 21:40:00,41.0,26.9,29.82,North,351,5.0,5.0,57,0.00,,,0.00,0,Wunderground v.1.15,2013-03-01 02:40:00,
2013-02-28 21:45:00,40.9,26.8,29.82,WNW,297,4.0,12.0,57,0.00,,,0.00,0,Wunderground v.1.15,2013-03-01 02:45:00,
2013-02-28 21:50:00,40.9,27.2,29.82,NW,321,3.0,3.0,58,0.00,,,0.00,0,Wunderground v.1.15,2013-03-01 02:50:00,
2013-02-28 22:00:00,40.9,27.2,29.82,NW,317,4.0,12.0,58,0.00,,,0.00,0,Wunderground v.1.15,2013-03-01 03:00:00,
2013-02-28 22:10:00,40.8,27.6,29.81,NW,309,3.0,12.0,59,0.00,,,0.00,0,Wunderground v.1.15,2013-03-01 03:10:00,
2013-02-28 22:15:00,40.8,27.6,29.81,WNW,290,3.0,12.0,59,0.00,,,0.00,0,Wunderground v.1.15,2013-03-01 03:15:00,
2013-02-28 22:20:00,40.8,27.6,29.81,WNW,293,3.0,3.0,59,0.00,,,0.00,0,Wunderground v.1.15,2013-03-01 03:20:00,
2013-02-28 22:25:00,40.7,27.5,29.81,WNW,299,3.0,12.0,59,0.00,,,0.00,0,Wunderground v.1.15,2013-03-01 03:25:00,
2013-02-28 22:30:00,40.6,27.4,29.81,NW,320,3.0,12.0,59,0.00,,,0.00,0,Wunderground v.1.15,2013-03-01 03:30:00,
2013-02-28 22:40:00,40.4,27.6,29.82,NW,311,3.0,3.0,60,0.00,,,0.00,0,Wunderground v.1.15,2013-03-01 03:40:00,
2013-02-28 22:45:00,40.4,27.6,29.82,NW,305,2.0,12.0,60,0.00,,,0.00,0,Wunderground v.1.15,2013-03-01 03:45:00,
2013-02-28 22:50:00,40.4,27.6,29.82,NW,315,2.0,12.0,60,0.00,,,0.00,0,Wunderground v.1.15,2013-03-01 03:50:00,
2013-02-28 22:55:00,40.4,27.6,29.82,NW,306,2.0,12.0,60,0.00,,,0.00,0,Wunderground v.1.15,2013-03-01 03:55:00,
2013-02-28 23:00:00,40.4,27.6,29.82,NW,313,3.0,12.0,60,0.00,,,0.00,0,Wunderground v.1.15,2013-03-01 04:00:00,
2013-02-28 23:05:00,40.4,27.6,29.82,North,360,3.0,12.0,60,0.00,,,0.00,0,Wunderground v.1.15,2013-03-01 04:05:00,
2013-02-28 23:10:00,40.3,27.5,29.81,NW,323,2.0,12.0,60,0.00,,,0.00,0,Wunderground v.1.15,2013-03-01 04:10:00,
2013-02-28 23:15:00,40.2,27.8,29.81,NNE,29,2.0,12.0,61,0.00,,,0.00,0,Wunderground v.1.15,2013-03-01 04:15:00,
2013-02-28 23:20:00,40.2,27.8,29.81,North,9,2.0,12.0,61,0.00,,,0.00,0,Wunderground v.1.15,2013-03-01 04:20:00,
2013-02-28 23:25:00,40.2,27.8,29.81,NNE,24,2.0,12.0,61,0.00,,,0.00,0,Wunderground v.1.15,2013-03-01 04:25:00,
2013-02-28 23:30:00,40.1,27.7,29.81,WNW,301,1.0,12.0,61,0.00,,,0.00,0,Wunderground v.1.15,2013-03-01 04:30:00,
2013-02-28 23:35:00,40.1,27.7,29.82,NNW,329,1.0,12.0,61,0.00,,,0.00,0,Wunderground v.1.15,2013-03-01 04:35:00,
2013-02-28 23:45:00,40.0,27.6,29.81,NW,309,1.0,12.0,61,0.00,,,0.00,0,Wunderground v.1.15,2013-03-01 04:45:00,
2013-02-28 23:50:00,40.0,28.0,29.82,NW,309,1.0,1.0,62,0.00,,,0.00,0,Wunderground v.1.15,2013-03-01 04:50:00,
2013-02-28 23:55:00,40.0,28.0,29.82,North,349,1.0,3.0,62,0.00,,,0.00,0,Wunderground v.1.15,2013-03-01 04:55:00,